Date,TemperatureHighF,TemperatureAvgF,TemperatureLowF,DewpointHighF,DewpointAvgF,DewpointLowF,HumidityHigh,HumidityAvg,HumidityLow,PressureMaxIn,PressureMinIn,WindSpeedMaxMPH,WindSpeedAvgMPH,GustSpeedMaxMPH,PrecipitationSumIn
2013-1-1,20.4,9.3,-0.6,13.1,5.1,-3.9,89,83,72,30.74,30.59,10,1,10,0.00
2013-1-2,19.4,4.4,-5.4,11.5,0.2,-9.0,90,83,70,30.87,30.71,4,0,4,0.00
2013-1-3,22.8,4.0,-8.6,9.3,-1.7,-12.6,89,78,47,30.90,30.80,4,0,4,0.00
2013-1-4,27.3,6.9,-5.8,10.9,0.3,-9.4,91,75,44,30.83,30.67,8,1,8,0.00
2013-1-5,29.6,11.1,-2.1,15.4,4.6,-5.7,91,76,49,30.83,30.62,4,0,4,0.00
2013-1-6,36.2,18.7,6.5,17.5,10.5,3.3,91,73,39,30.62,30.29,5,0,5,0.00
2013-1-7,33.7,18.3,2.5,22.2,9.1,-0.9,90,70,40,30.44,30.33,6,1,6,0.00
2013-1-8,36.1,30.7,26.0,28.5,25.5,21.7,87,81,69,30.46,30.31,12,2,12,0.00
2013-1-9,45.2,27.8,11.2,24.2,18.8,8.7,96,72,39,30.49,29.93,21,3,21,0.01
2013-1-10,40.8,31.3,17.5,28.1,20.3,12.4,93,67,43,29.94,29.44,28,9,28,0.01
2013-1-11,17.5,14.1,10.8,12.6,8.8,6.5,87,79,69,30.17,29.54,13,2,13,0.00
2013-1-12,12.6,5.9,-1.8,7.7,1.1,-6.5,88,80,66,30.41,30.16,14,2,14,0.00
2013-1-13,7.7,-1.9,-12.6,0.5,-6.6,-16.9,85,80,70,30.67,30.41,8,1,8,0.00
2013-1-14,6.8,-4.9,-17.1,-1.9,-10.1,-21.6,85,78,62,30.91,30.67,12,1,12,0.00
2013-1-15,16.7,9.5,2.4,10.9,4.4,-2.5,90,79,71,30.93,30.85,11,2,12,0.00
2013-1-16,23.8,12.7,5.1,17.0,8.8,1.7,89,84,74,30.97,30.86,4,1,4,0.00
2013-1-17,28.5,10.5,-3.4,19.0,6.0,-6.6,92,82,65,31.00,30.84,5,0,5,0.00
2013-1-18,33.4,14.1,-0.6,19.1,8.1,-3.9,93,78,49,30.86,30.69,5,1,5,0.00
2013-1-19,35.0,17.0,2.5,19.1,10.1,-0.6,92,76,48,30.83,30.69,4,1,4,0.00
2013-1-20,35.4,15.6,0.4,16.3,8.0,-3.2,93,74,40,30.75,30.64,7,1,7,0.00
2013-1-21,37.4,17.6,3.3,19.5,9.7,0.1,91,73,42,30.76,30.61,4,1,4,0.00
2013-1-22,39.3,18.8,4.9,18.9,10.0,1.3,92,71,37,30.68,30.55,4,0,4,0.00
2013-1-23,44.6,24.8,11.0,25.5,15.4,7.4,87,70,35,30.60,30.42,4,1,4,0.09
2013-1-24,38.4,33.1,25.6,35.6,30.0,19.7,96,88,76,30.43,30.26,4,0,4,0.29
2013-1-25,39.8,34.3,29.2,35.3,32.4,27.5,98,93,80,30.35,30.17,6,0,6,0.25
2013-1-26,31.6,30.3,28.7,30.5,29.0,27.2,96,95,94,30.18,30.15,1,0,3,0.00
2013-1-27,38.7,30.2,23.7,33.9,27.0,17.8,97,88,71,29.87,29.66,18,3,18,0.09
2013-1-28,24.0,19.0,14.5,18.6,13.2,8.8,87,78,57,30.13,29.86,12,4,12,0.00
2013-1-29,26.0,17.7,10.0,18.1,12.6,7.2,90,80,65,30.39,30.07,14,2,14,0.00
2013-1-30,34.9,27.4,19.7,27.8,22.5,15.8,92,82,74,30.40,30.28,26,6,26,0.01
2013-1-31,35.9,32.6,30.6,26.4,25.1,23.7,84,74,64,30.41,30.32,15,5,17,0.08